Temperature
23 24 25 25 25 25 24 22 22 22 21 22 22 22 22 23 23 23 22 22 23 22 22 22 22 21 21 21 20 20 20 20 20 20 19 19 19 18 18 18 18 18 17 17
23 25 25 25 25 25 25 24 23 22 22 22 22 23 23 23 23 22 22 22 22 22 22 21 21 21 20 20 20 20 20 19 19 19 19 19 18 18 18 18 18 17 17 17
21 23 24 23 24 24 24 23 22 22 21 21 21 22 22 23 23 22 22 22 22 22 22 21 21 21 20 20 20 19 19 19 19 19 19 18 18 18 18 18 17 17 17 17
20 22 22 22 23 24 23 23 22 21 21 21 22 22 23 23 23 22 22 22 22 22 22 21 21 20 20 20 19 19 19 19 18 18 18 18 18 17 17 17 17 17 17 17
18 20 21 23 24 23 22 21 21 21 21 22 22 21 21 22 22 22 22 22 22 22 21 21 20 20 20 19 19 19 19 18 18 18 18 17 17 17 17 17 17 17 17 16
19 21 21 22 23 24 22 20 21 21 20 21 21 18 19 21 22 22 22 22 21 21 21 20 20 20 20 19 19 19 18 18 18 18 17 17 17 17 17 17 16 16 16 16
18 19 20 21 22 23 21 20 21 21 20 21 20 19 21 21 21 21 21 21 21 20 20 20 20 19 19 19 19 18 18 18 18 17 17 17 17 17 16 16 16 16 16 16
17 18 19 20 21 20 19 20 21 20 20 21 21 20 20 20 21 21 20 20 20 20 20 19 19 19 19 18 18 18 18 17 17 17 17 17 17 16 16 16 16 15 15 15
17 17 19 20 20 21 21 20 20 20 20 20 20 20 20 20 20 20 20 20 20 19 19 19 19 18 18 18 18 17 17 17 17 17 16 16 16 16 16 15 15 15 15 15
16 18 19 20 20 21 21 21 21 21 20 20 20 19 19 19 19 19 19 19 19 19 18 18 18 18 18 17 17 17 17 16 16 16 16 16 16 16 15 15 15 15 15 14
16 17 19 19 20 20 20 20 20 20 20 20 20 19 19 19 19 19 18 18 18 18 18 17 17 17 17 17 17 16 16 16 16 16 16 16 15 15 15 15 15 15 14 14
16 17 17 18 20 20 20 20 20 20 19 19 19 19 19 19 18 18 18 18 17 17 17 17 17 17 16 16 16 16 16 16 15 15 15 15 15 15 15 15 15 14 14 14
19 19 19 19 20 20 20 19 19 19 19 19 19 19 18 18 18 17 17 17 17 17 17 16 16 16 16 16 15 15 15 15 15 15 15 15 15 15 14 14 14 14 14 14
19 19 19 19 19 19 19 19 19 19 18 18 18 18 17 17 17 17 17 16 16 16 16 16 16 16 15 15 15 15 15 15 14 14 14 14 14 14 14 14 14 14 14 14
19 19 18 18 19 19 19 19 18 18 18 18 17 17 17 17 17 16 16 16 16 16 16 16 15 15 15 15 15 14 14 14 14 14 14 14 14 14 13 13 13 13 13 13
18 18 18 18 18 18 18 18 17 17 17 17 17 17 17 16 16 16 16 15 15 15 15 15 15 15 15 14 14 14 14 14 14 13 13 13 13 13 13 13 13 13 13 13
17 17 17 17 17 17 17 17 17 17 17 16 16 16 16 16 15 15 15 15 15 14 14 14 14 14 14 14 14 14 14 13 13 13 13 13 13 13 13 13 13 13 12 12
17 17 17 17 17 17 16 16 16 16 16 16 16 15 15 15 15 14 14 14 14 14 14 14 14 14 14 14 14 13 13 13 13 13 13 13 13 12 12 13 13 12 12 12
16 16 16 16 16 16 16 16 16 15 15 15 15 15 15 14 14 14 14 14 14 14 14 14 14 14 13 13 13 13 13 13 13 12 12 12 12 12 12 12 12 12 12 12
15 15 16 15 15 15 15 15 15 15 15 15 15 14 14 14 14 14 13 13 13 13 13 13 13 13 13 13 13 13 12 12 12 12 12 12 12 12 12 12 12 12 12 12
15 15 15 15 15 15 15 15 15 14 14 14 14 14 14 13 13 13 13 13 13 13 13 13 13 13 13 12 12 12 12 12 12 12 12 11 11 11 12 12 11 11 11 11
14 14 14 14 14 14 14 14 14 14 14 14 14 14 13 13 13 13 13 13 13 12 12 12 12 12 12 12 12 12 12 12 11 11 11 11 11 11 11 11 11 11 11 11
14 14 14 14 14 14 14 14 14 14 13 13 13 13 13 13 13 13 12 12 12 12 12 12 12 12 12 11 11 11 11 11 11 11 11 11 11 11 10 10 10 10 10 10
13 13 13 13 13 13 13 13 13 13 13 13 13 13 13 13 12 12 12 12 12 12 12 12 12 11 11 11 11 11 11 11 11 11 11 10 10 10 10 10 10 10 10 10
13 13 13 13 13 13 13 13 13 13 13 13 13 12 12 12 12 12 12 12 12 12 11 11 11 11 11 11 11 10 10 10 10 10 10 10 10 10 10 10 10 10 10 9
12 12 12 12 12 12 12 12 12 12 12 12 12 12 12 12 12 12 12 11 11 11 11 11 11 10 10 10 10 10 10 10 10 10 10 10 10 10 10 9 9 9 9 9
12 12 12 12 12 12 12 12 12 12 12 12 12 11 11 11 11 11 11 11 11 11 10 10 10 10 10 10 10 10 10 10 9 9 9 9 9 9 9 9 9 9 9 8
Wind_Speed
3 4 2 1 1 1 2 5 6 6 6 6 6 6 5 5 5 6 5 5 6 6 5 5 5 4 4 4 4 4 5 5 5 4 4 3 2 2 2 3 3 3 3 3
4 2 3 2 1 0 1 2 4 5 3 4 4 5 4 4 5 6 5 6 6 6 5 5 5 5 5 4 4 4 5 4 4 3 3 3 3 2 2 2 3 2 3 3
2 5 5 3 2 3 2 2 5 4 4 4 3 5 5 5 5 5 5 5 6 7 7 7 6 6 6 5 4 4 4 4 4 4 3 3 3 2 3 3 2 2 3 3
1 4 1 6 3 6 6 3 3 3 3 5 4 5 4 5 6 5 5 4 4 5 5 5 5 5 5 4 4 4 4 4 4 4 4 3 2 3 3 3 3 3 3 3
3 2 3 4 2 3 5 3 4 4 3 3 4 5 3 0 2 5 5 4 4 4 4 4 5 5 5 4 4 4 4 4 4 4 3 3 3 4 3 2 2 2 2 3
4 3 4 5 5 2 8 2 4 4 3 3 4 3 3 2 1 3 3 3 3 3 3 3 3 4 5 4 4 4 4 4 4 4 4 4 5 4 2 2 3 2 2 3
3 3 4 5 5 3 4 5 2 2 2 2 3 5 4 2 2 3 2 2 3 4 4 3 4 5 4 4 4 4 3 3 3 3 3 3 3 2 2 2 2 2 2 3
3 3 5 5 4 3 5 3 2 2 1 2 1 2 3 3 2 3 2 2 2 3 3 2 3 4 3 3 3 2 3 3 2 2 2 2 2 2 2 2 2 2 2 3
4 5 4 1 3 3 4 4 2 2 2 3 3 2 2 2 2 2 1 1 2 4 3 1 2 4 3 2 1 2 2 2 2 2 1 1 1 1 1 1 2 3 2 3
3 0 0 3 3 3 4 3 2 3 3 3 2 2 2 2 2 2 1 2 3 5 4 1 1 2 2 1 1 2 2 1 1 1 1 1 1 1 2 2 2 3 3 3
2 1 3 4 3 3 4 4 5 4 3 3 3 2 2 2 2 2 2 2 3 4 4 2 1 1 0 1 2 2 1 1 1 1 1 1 1 2 3 3 4 4 4 3
4 5 3 2 2 2 4 3 4 4 3 2 2 3 3 2 2 2 2 2 2 2 3 2 2 0 1 0 2 2 1 1 1 1 1 2 1 2 3 3 4 3 4 4
4 3 3 2 1 2 3 2 3 3 2 1 1 2 3 3 2 3 2 2 2 2 2 2 1 0 1 1 1 2 2 1 1 1 2 2 2 2 2 4 3 2 3 3
4 5 3 1 1 3 3 2 3 3 2 2 2 2 3 3 2 2 2 2 2 2 2 2 1 2 2 1 0 1 1 1 1 1 2 2 2 3 3 3 2 3 3 3
3 3 2 1 2 3 3 3 4 3 2 1 1 2 3 3 2 2 1 1 2 2 0 1 1 2 2 1 1 1 1 1 1 1 2 2 2 2 2 2 2 2 2 2
2 3 3 3 3 3 3 3 2 1 1 2 2 2 2 3 2 2 2 2 2 1 1 1 2 3 2 2 2 1 1 2 2 1 2 1 1 1 1 2 2 2 2 2
3 1 2 2 2 2 2 2 1 1 1 2 1 1 2 3 3 2 1 1 0 1 2 2 3 3 2 2 2 2 2 2 3 2 2 2 2 2 2 2 2 2 2 2
2 1 1 1 1 1 2 2 2 2 2 1 2 3 3 3 2 1 1 1 1 2 3 3 3 2 2 2 1 2 2 2 2 2 2 2 3 2 2 2 2 2 2 2
2 1 2 2 2 2 2 2 2 2 2 2 3 3 2 2 1 1 0 1 1 3 4 4 3 2 2 3 2 1 1 2 2 2 2 3 2 2 2 2 2 2 2 1
3 2 2 2 2 2 1 1 2 2 2 3 3 3 2 0 0 0 0 1 3 4 4 3 3 2 2 2 2 1 1 1 1 2 2 2 2 2 2 2 2 1 1 1
3 2 2 2 2 2 1 2 2 1 1 2 3 2 1 2 1 0 0 2 4 4 3 3 2 2 2 2 2 1 1 2 2 2 2 2 2 2 2 2 1 1 2 2
2 2 2 2 2 2 2 1 1 1 1 1 1 1 0 1 1 1 2 3 4 4 2 2 2 3 3 2 2 2 2 2 2 2 2 2 2 2 2 2 2 2 2 2
1 1 2 2 1 1 2 2 1 1 1 1 1 1 1 2 2 1 3 4 2 3 2 2 3 3 3 2 1 2 2 2 2 2 3 3 2 2 2 2 2 2 1 1
1 1 1 1 1 2 2 3 2 1 1 1 1 2 1 1 2 2 3 3 2 2 2 3 4 3 3 1 1 1 2 2 1 1 1 2 2 2 2 2 2 1 1 1
1 1 1 1 1 2 3 3 2 1 1 1 2 2 1 1 2 2 2 2 2 2 2 3 4 4 2 1 1 1 2 1 1 1 1 1 2 2 2 1 1 1 1 1
2 2 2 3 3 3 2 1 1 1 1 1 1 1 1 1 1 1 1 1 2 2 2 2 2 2 1 0 0 1 1 1 1 1 0 0 0 0 0 1 1 1 1 0
2 2 2 2 2 1 1 1 1 1 1 1 1 2 1 1 1 1 1 1 2 2 1 1 1 1 0 0 0 0 0 1 1 1 1 1 1 0 0 1 1 0 1 1
Wind_Direction
205 208 172 218 273 228 151 177 176 196 187 208 192 170 159 146 135 127 122 135 146 156 166 162 157 163 166 170 174 175 173 181 199 205 198 189 180 182 182 195 212 217 218 227
360 13 53 19 348 117 152 132 143 137 199 215 169 143 127 128 129 130 139 156 161 157 164 166 170 180 181 186 188 175 174 186 193 191 186 186 186 181 177 205 224 226 224 225
307 326 28 349 258 156 123 162 147 168 210 159 136 144 151 148 145 157 153 161 170 170 177 179 183 184 189 191 176 168 179 189 189 177 179 191 191 184 199 212 219 239 245 234
117 40 196 250 244 122 107 57 69 105 133 150 161 169 152 149 158 163 161 161 171 179 180 175 174 177 181 175 170 177 187 193 191 187 195 201 196 203 215 215 221 233 246 239
117 152 265 297 334 132 121 42 29 91 96 115 101 72 33 322 163 167 170 173 173 181 177 171 174 177 166 172 182 186 194 195 193 189 196 207 220 225 218 208 223 238 246 242
123 144 213 261 303 123 96 49 350 76 92 114 101 100 256 280 125 142 157 155 144 145 122 135 175 163 160 178 180 198 203 202 195 192 201 216 225 225 213 203 217 231 255 250
145 178 251 282 312 56 112 216 277 51 79 115 152 194 208 163 112 131 142 138 125 126 132 158 166 152 159 174 199 210 201 191 196 206 213 222 223 213 202 200 216 243 262 270
139 162 247 312 32 114 188 195 136 84 82 99 113 120 115 116 118 116 108 104 120 131 145 162 153 141 147 186 211 199 182 183 200 210 224 231 207 213 212 212 229 253 264 279
166 197 237 344 119 158 148 134 137 129 105 97 83 99 103 95 93 85 95 95 131 133 122 117 141 141 155 212 192 171 167 179 192 190 214 207 190 219 243 245 246 261 257 267
78 326 69 57 75 77 97 121 133 119 112 105 100 121 116 110 92 78 62 85 103 112 109 89 65 113 156 196 161 135 139 161 176 191 248 299 246 231 236 246 249 258 253 259
93 280 32 18 42 82 76 75 74 71 81 101 108 110 132 122 110 101 99 97 111 125 130 138 112 95 157 162 132 112 117 173 199 204 219 250 271 264 246 240 228 229 237 232
197 220 169 248 295 99 91 84 86 79 57 48 109 118 117 127 129 121 121 118 112 127 135 142 139 131 319 326 131 134 151 229 240 232 246 249 262 317 318 279 276 253 233 223
173 179 161 224 359 73 102 102 102 104 114 111 87 119 126 126 128 120 110 122 137 151 152 159 165 252 293 264 163 166 187 219 248 251 252 249 238 227 281 315 315 280 256 250
112 102 72 35 18 26 60 86 90 85 85 121 127 113 115 118 122 123 137 173 165 152 155 164 177 261 266 246 197 214 214 227 219 239 248 242 230 226 225 236 273 300 291 261
67 102 157 157 40 33 50 71 72 61 53 69 123 121 122 135 154 184 188 147 122 110 156 180 212 266 263 212 192 221 233 248 242 237 241 237 230 225 235 240 241 262 303 311
49 39 45 47 34 29 47 59 66 44 49 70 89 110 138 150 145 123 110 116 113 161 252 243 259 265 256 220 209 225 238 255 243 240 253 258 251 238 234 239 243 238 247 275
80 38 31 25 14 31 41 51 87 97 86 84 111 115 105 100 92 86 77 87 153 243 257 257 272 281 272 246 224 234 237 249 258 259 251 252 249 246 235 225 224 223 240 240
121 159 186 162 135 82 42 42 58 75 95 100 90 91 102 113 127 173 267 307 348 343 314 289 274 274 281 271 245 242 234 239 239 240 248 251 250 244 239 227 216 216 249 266
69 61 55 86 101 113 103 79 72 82 89 91 89 96 111 130 154 189 32 21 347 313 297 290 289 289 277 274 269 245 242 247 250 255 264 270 269 259 243 238 239 246 246 256
50 45 58 50 40 76 90 84 80 76 86 104 101 91 76 56 204 208 314 286 262 254 269 291 306 294 281 288 294 258 253 245 243 250 245 251 261 262 247 230 224 241 257 249
47 37 48 48 42 52 70 84 88 85 84 105 115 140 204 257 255 205 339 302 294 285 285 298 298 283 271 268 270 249 244 232 232 234 236 244 262 259 236 226 234 254 261 253
54 66 72 66 59 28 11 50 105 120 106 102 120 147 240 289 290 303 280 254 270 293 299 295 288 283 281 273 257 254 253 240 233 236 233 230 231 240 241 239 248 256 254 244
53 67 66 69 71 41 5 3 25 104 136 230 258 259 245 250 237 217 285 282 278 301 305 288 294 302 306 295 276 268 266 255 243 240 236 230 221 221 232 240 249 256 252 241
26 22 13 351 18 14 340 311 306 301 238 248 263 264 255 268 292 265 240 257 282 309 307 301 304 306 305 285 266 260 261 261 257 234 217 219 225 231 242 242 245 251 253 243
266 276 291 315 312 282 271 279 299 300 296 309 299 296 280 217 219 268 275 275 290 311 317 314 302 303 305 284 269 264 263 266 263 239 218 217 228 234 231 222 210 209 228 240
284 271 260 245 241 246 251 250 258 273 291 316 314 310 309 306 285 273 272 289 304 305 298 290 291 297 304 304 300 300 293 300 319 343 350 285 303 350 320 282 268 220 201 232
299 299 306 316 307 274 234 222 226 249 227 203 282 302 303 313 331 326 321 321 321 320 321 319 313 310 298 287 58 12 334 1 38 49 48 56 58 44 22 56 69 54 55 43
Height
1497 1493 1493 1495 1495 1495 1500 1507 1516 1515 1513 1507 1503 1502 1502 1502 1503 1504 1506 1506 1507 1508 1509 1511 1513 1514 1515 1516 1517 1518 1519 1519 1520 1520 1521 1521 1521 1521 1521 1521 1521 1520 1520 1519
1498 1492 1491 1495 1493 1493 1496 1498 1504 1507 1509 1500 1500 1500 1501 1502 1502 1504 1505 1506 1506 1507 1508 1509 1511 1512 1514 1515 1515 1516 1517 1517 1518 1518 1518 1518 1519 1518 1519 1518 1518 1518 1517 1516
1511 1499 1496 1507 1497 1495 1497 1497 1500 1507 1504 1499 1500 1500 1501 1501 1503 1504 1504 1505 1506 1506 1507 1508 1509 1510 1512 1513 1514 1514 1515 1515 1516 1516 1516 1516 1516 1516 1516 1516 1515 1514 1514 1513
1513 1510 1521 1508 1489 1488 1494 1496 1495 1496 1497 1496 1497 1498 1500 1501 1501 1502 1503 1504 1504 1504 1505 1506 1508 1509 1510 1511 1512 1512 1513 1513 1513 1513 1513 1513 1513 1513 1513 1512 1512 1511 1510 1509
1518 1521 1515 1499 1491 1490 1496 1503 1497 1497 1497 1497 1498 1498 1501 1501 1501 1501 1501 1502 1502 1503 1503 1505 1506 1507 1508 1509 1509 1510 1510 1510 1511 1511 1511 1510 1510 1510 1509 1509 1509 1508 1507 1506
1515 1518 1521 1505 1490 1487 1492 1507 1498 1497 1498 1498 1498 1504 1503 1500 1500 1500 1500 1500 1500 1501 1502 1503 1504 1505 1505 1506 1506 1507 1507 1507 1508 1508 1508 1507 1507 1507 1506 1506 1505 1505 1504 1503
1514 1517 1511 1496 1489 1488 1507 1509 1499 1497 1497 1497 1497 1499 1499 1499 1499 1499 1499 1499 1499 1499 1500 1501 1501 1502 1502 1503 1503 1504 1504 1505 1505 1505 1504 1504 1504 1504 1503 1503 1502 1502 1501 1500
1514 1518 1515 1493 1491 1496 1500 1496 1497 1497 1496 1496 1496 1496 1496 1497 1497 1497 1497 1497 1497 1497 1498 1499 1499 1500 1500 1500 1500 1501 1501 1501 1501 1501 1501 1501 1501 1500 1500 1500 1499 1498 1498 1497
1505 1508 1498 1493 1493 1494 1494 1495 1495 1495 1495 1495 1495 1495 1496 1495 1495 1496 1496 1495 1496 1496 1497 1498 1498 1498 1498 1498 1498 1498 1498 1498 1498 1498 1498 1498 1498 1497 1497 1497 1496 1495 1494 1494
1501 1499 1496 1495 1494 1494 1494 1494 1495 1495 1495 1496 1495 1495 1495 1495 1494 1495 1495 1495 1495 1495 1496 1496 1496 1497 1497 1496 1496 1496 1496 1496 1496 1496 1496 1495 1495 1495 1494 1494 1493 1492 1492 1491
1501 1498 1497 1496 1495 1495 1495 1495 1495 1495 1495 1495 1494 1494 1494 1493 1493 1494 1494 1495 1495 1495 1495 1495 1495 1495 1495 1494 1494 1494 1494 1493 1493 1493 1493 1493 1492 1492 1491 1491 1490 1490 1489 1488
1501 1496 1497 1497 1497 1495 1495 1495 1495 1495 1495 1495 1494 1493 1493 1493 1493 1493 1494 1494 1494 1494 1494 1494 1494 1494 1494 1493 1492 1492 1491 1491 1491 1491 1490 1490 1489 1489 1488 1488 1487 1487 1486 1485
1493 1494 1495 1495 1496 1495 1495 1495 1494 1494 1494 1494 1494 1494 1493 1493 1493 1493 1493 1493 1493 1493 1492 1492 1492 1492 1491 1491 1490 1490 1489 1488 1488 1488 1487 1487 1486 1485 1485 1485 1484 1484 1483 1482
1492 1493 1494 1495 1495 1495 1494 1494 1493 1493 1493 1493 1493 1493 1492 1492 1492 1492 1491 1491 1491 1491 1491 1490 1490 1490 1489 1489 1488 1487 1487 1486 1486 1485 1485 1484 1484 1483 1482 1481 1480 1480 1480 1479
1492 1493 1494 1494 1494 1493 1493 1492 1492 1492 1491 1491 1491 1491 1490 1490 1490 1490 1490 1490 1490 1489 1489 1488 1488 1487 1487 1486 1485 1485 1484 1484 1483 1483 1482 1481 1481 1480 1479 1478 1477 1476 1476 1475
1492 1493 1492 1492 1492 1492 1491 1491 1491 1490 1490 1489 1489 1489 1489 1489 1489 1488 1488 1488 1487 1487 1486 1486 1485 1484 1484 1483 1482 1481 1481 1481 1480 1479 1479 1478 1477 1477 1476 1475 1474 1473 1473 1472
1490 1491 1491 1490 1491 1491 1490 1490 1489 1489 1488 1488 1487 1487 1487 1487 1487 1487 1486 1486 1486 1485 1485 1484 1483 1482 1481 1480 1479 1478 1477 1477 1476 1476 1475 1475 1474 1473 1473 1472 1471 1471 1470 1470
1490 1490 1490 1490 1490 1490 1489 1489 1488 1488 1487 1486 1486 1486 1485 1485 1485 1485 1484 1484 1483 1483 1482 1481 1481 1480 1479 1478 1477 1476 1475 1474 1473 1472 1472 1471 1471 1471 1470 1470 1469 1468 1468 1467
1488 1488 1488 1488 1489 1488 1488 1488 1487 1487 1486 1486 1485 1484 1484 1484 1484 1483 1483 1482 1481 1480 1480 1479 1478 1477 1476 1475 1474 1473 1472 1471 1470 1469 1469 1468 1468 1467 1467 1467 1466 1466 1465 1464
1487 1487 1487 1487 1487 1487 1487 1486 1486 1486 1485 1485 1484 1483 1483 1483 1482 1481 1480 1479 1478 1478 1477 1477 1475 1474 1473 1472 1471 1470 1469 1468 1467 1466 1466 1465 1465 1464 1464 1464 1463 1463 1462 1461
1487 1486 1486 1485 1485 1486 1485 1485 1484 1484 1484 1483 1483 1482 1481 1481 1480 1479 1478 1477 1477 1476 1475 1473 1472 1471 1470 1469 1468 1467 1466 1465 1464 1463 1463 1462 1462 1461 1461 1460 1460 1459 1459 1458
1486 1485 1485 1485 1484 1484 1484 1484 1483 1483 1482 1482 1481 1480 1479 1479 1478 1477 1476 1475 1474 1473 1472 1471 1469 1468 1467 1466 1465 1464 1463 1462 1461 1460 1460 1460 1459 1458 1458 1457 1456 1456 1455 1454
1485 1484 1484 1484 1483 1483 1482 1482 1481 1481 1480 1480 1479 1478 1478 1477 1476 1475 1474 1473 1472 1471 1469 1468 1467 1465 1464 1463 1462 1460 1459 1458 1458 1458 1457 1457 1456 1456 1455 1455 1454 1453 1452 1451
1484 1483 1483 1483 1482 1481 1481 1480 1480 1479 1479 1478 1477 1477 1476 1475 1474 1473 1472 1471 1470 1468 1467 1465 1464 1463 1462 1460 1459 1458 1457 1456 1455 1455 1455 1454 1454 1453 1452 1452 1451 1450 1449 1448
1482 1482 1481 1481 1480 1479 1479 1478 1478 1477 1476 1476 1475 1475 1474 1473 1472 1471 1470 1468 1467 1466 1464 1463 1461 1460 1459 1458 1456 1455 1454 1454 1453 1453 1452 1452 1451 1451 1450 1449 1448 1447 1446 1445
1480 1480 1479 1479 1478 1477 1477 1476 1475 1474 1474 1473 1472 1472 1471 1470 1469 1468 1467 1466 1464 1463 1461 1460 1459 1457 1456 1455 1454 1453 1452 1452 1451 1450 1450 1449 1449 1448 1447 1447 1446 1445 1444 1443
1478 1477 1476 1476 1475 1474 1474 1473 1472 1471 1471 1470 1470 1469 1468 1467 1466 1465 1464 1463 1461 1460 1459 1457 1456 1455 1454 1453 1451 1451 1450 1449 1449 1448 1447 1447 1446 1445 1445 1444 1443 1442 1441 1440